EW7304 Weather Reports


Display with metric or nautical units.
time (UTC)temp
F
wind
direction
speed
MPH
gust
MPH
rain 1hr
in
rain 24hr
in
rain mn
in
humidity
%
barometer
mb
20260901064513 81 106 0.0 0.0 0.00 0.04 0.00 90 1015.0
20260901063011 81 106 0.0 0.0 0.00 0.04 0.00 90 1014.9
20260901061510 81 106 0.0 0.0 0.00 0.04 0.00 90 1015.0
20260901060009 81 106 0.0 0.0 0.00 0.04 0.00 90 1015.2
20260901054508 81 105 0.0 0.0 0.00 0.04 0.00 89 1015.2
20260901053006 81 105 0.0 0.0 0.00 0.04 0.00 89 1015.1
20260901051504 82 105 0.0 0.0 0.00 0.04 0.00 88 1014.9
20260901050003 82 105 0.0 0.0 0.00 0.04 0.00 88 1015.0
20260901044506 82 105 0.0 0.0 0.00 0.04 0.04 87 1014.9
20260901043003 82 105 0.0 0.0 0.00 0.04 0.04 87 1014.8
20260901041501 82 105 0.0 0.0 0.00 0.04 0.04 87 1015.0
20260901040105 83 105 0.0 0.0 0.00 0.04 0.04 86 1014.9
20260901034607 83 105 0.0 0.0 0.00 0.04 0.04 86 1014.9
20260901033107 83 105 0.0 0.0 0.00 0.04 0.04 86 1014.9
20260901031559 83 105 0.0 0.0 0.00 0.04 0.04 85 1014.9
20260901030059 83 105 0.0 0.0 0.00 0.04 0.04 85 1014.7
20260901024607 84 105 0.0 0.0 0.00 0.04 0.04 85 1014.4
20260901023056 84 105 0.0 0.0 0.00 0.04 0.04 84 1014.3
20260901021559 84 105 0.0 0.0 0.00 0.04 0.04 84 1014.0
20260901020056 84 219 0.0 0.0 0.00 0.04 0.04 83 1013.8
20260901014558 85 220 0.0 0.0 0.00 0.04 0.04 82 1013.7
20260901013054 85 219 0.0 0.0 0.00 0.04 0.04 81 1013.6
20260901011557 85 219 0.0 0.0 0.00 0.04 0.04 81 1013.7
20260901010051 85 220 0.0 0.0 0.00 0.04 0.04 80 1013.7
20260901004551 86 219 0.0 0.0 0.00 0.04 0.04 80 1013.7
20260901003056 86 220 0.0 0.0 0.00 0.04 0.04 79 1013.7
20260901001553 87 219 0.0 0.0 0.00 0.04 0.04 78 1013.8
20260901000051 87 222 0.0 2.0 0.00 0.04 0.04 76 1013.7
20260831234549 88 253 0.0 2.0 0.00 0.04 0.04 75 1013.7
20260831233048 88 221 0.0 2.0 0.00 0.04 0.04 74 1013.9
20260831231546 88 200 0.0 0.0 0.00 0.04 0.04 77 1013.8
20260831230044 88 75 0.0 2.0 0.00 0.04 0.04 77 1013.8
20260831224543 87 215 0.0 0.0 0.00 0.04 0.04 79 1014.0
20260831223043 86 205 0.0 0.0 0.00 0.04 0.04 81 1014.0
20260831221543 86 236 0.0 0.0 0.00 0.04 0.04 83 1014.0
20260831220042 85 238 0.0 0.0 0.00 0.04 0.04 84 1014.2
20260831214543 84 215 0.0 0.0 0.00 0.04 0.04 84 1014.3
20260831213042 83 221 0.0 1.0 0.01 0.04 0.04 83 1014.5
20260831211534 83 224 0.0 0.0 0.02 0.04 0.04 84 1014.8
20260831210037 83 224 0.0 0.0 0.02 0.04 0.04 85 1014.9
20260831204540 83 224 0.0 4.0 0.02 0.04 0.04 84 1015.1
20260831203052 86 216 0.0 2.0 0.01 0.03 0.03 81 1015.4
20260831201532 90 60 1.0 8.0 0.00 0.02 0.02 74 1015.3
20260831200036 89 19 0.0 2.0 0.00 0.02 0.02 74 1015.1
20260831194528 89 9 0.0 2.0 0.00 0.02 0.02 75 1015.6
20260831193027 89 328 0.0 2.0 0.00 0.02 0.02 77 1015.5
20260831191524 88 315 0.0 2.0 0.00 0.02 0.02 78 1015.6
20260831190026 88 330 1.0 3.0 0.00 0.02 0.02 78 1016.1
20260831184525 87 330 0.0 2.0 0.00 0.02 0.02 80 1016.1
20260831183023 87 333 0.0 3.0 0.00 0.02 0.02 79 1016.2
20260831181525 87 308 0.0 1.0 0.02 0.02 0.02 79 1016.3
20260831180022 88 7 0.0 2.0 0.02 0.02 0.02 80 1016.5
20260831174522 86 339 0.0 0.0 0.02 0.02 0.02 81 1016.6
20260831173019 86 129 0.0 1.0 0.02 0.02 0.02 83 1016.8
20260831171517 87 202 0.0 2.0 0.00 0.00 0.00 78 1016.9
20260831170026 88 60 0.0 2.0 0.00 0.00 0.00 77 1016.8
20260831164516 87 49 0.0 0.0 0.00 0.00 0.00 78 1016.9
20260831163016 87 95 0.0 1.0 0.00 0.00 0.00 78 1016.9
20260831161515 88 10 0.0 0.0 0.00 0.00 0.00 77 1017.0
20260831160033 87 141 0.0 1.0 0.00 0.00 0.00 79 1016.9
20260831154514 87 65 0.0 1.0 0.00 0.00 0.00 79 1017.0
20260831153032 88 86 0.0 2.0 0.00 0.00 0.00 78 1016.9
20260831151514 88 324 0.0 2.0 0.00 0.00 0.00 79 1017.0
20260831150009 87 328 0.0 1.0 0.00 0.00 0.00 81 1016.9
20260831144504 83 207 0.0 0.0 0.00 0.00 0.00 86 1016.8
20260831143002 83 205 0.0 0.0 0.00 0.00 0.00 88 1016.8
20260831141559 82 205 0.0 0.0 0.00 0.00 0.00 89 1016.8
20260831140058 82 213 0.0 0.0 0.00 0.00 0.00 89 1016.6
20260831134604 81 213 0.0 0.0 0.00 0.00 0.00 91 1016.5
20260831133056 79 213 0.0 0.0 0.00 0.00 0.00 95 1016.3
20260831131553 78 213 0.0 0.0 0.00 0.00 0.00 94 1016.2
20260831130057 78 213 0.0 0.0 0.00 0.00 0.00 94 1015.8
20260831124553 78 212 0.0 0.0 0.00 0.00 0.00 95 1015.7
20260831123050 78 212 0.0 0.0 0.00 0.00 0.00 94 1015.4
20260831121549 78 213 0.0 0.0 0.00 0.00 0.00 94 1015.4
20260831120131 78 213 0.0 0.0 0.00 0.00 0.00 95 1015.3
20260831114545 77 213 0.0 0.0 0.00 0.00 0.00 94 1015.2
20260831113043 78 213 0.0 0.0 0.00 0.00 0.00 94 1015.0
20260831111550 78 213 0.0 0.0 0.00 0.00 0.00 94 1014.9
20260831110042 78 212 0.0 0.0 0.00 0.00 0.00 94 1014.9
20260831104542 78 213 0.0 0.0 0.00 0.00 0.00 94 1015.0
20260831103045 78 213 0.0 0.0 0.00 0.00 0.00 93 1015.1
20260831101539 78 213 0.0 0.0 0.00 0.00 0.00 93 1015.0
20260831100044 78 213 0.0 0.0 0.00 0.00 0.00 93 1015.1
20260831094538 78 212 0.0 0.0 0.00 0.00 0.00 93 1015.1
20260831093038 78 213 0.0 0.0 0.00 0.00 0.00 93 1015.0
20260831091535 79 213 0.0 0.0 0.00 0.00 0.00 92 1014.9
20260831090035 79 213 0.0 0.0 0.00 0.00 0.00 92 1014.9
20260831084540 79 213 0.0 0.0 0.00 0.00 0.00 92 1014.9
20260831083031 79 213 0.0 0.0 0.00 0.00 0.00 91 1015.0
20260831081540 80 213 0.0 0.0 0.00 0.00 0.00 90 1015.1
20260831080025 80 213 0.0 0.0 0.00 0.00 0.00 89 1015.2
20260831074524 80 213 0.0 0.0 0.00 0.00 0.00 89 1015.2
20260831073024 81 213 0.0 0.0 0.00 0.00 0.00 89 1015.2
20260831071521 81 212 0.0 1.0 0.00 0.00 0.00 88 1015.3
20260831070026 81 215 0.0 0.0 0.00 0.00 0.00 88 1015.4